[[{"header":{"parameterUnit":"m.s-1","parameterCategory":1,"la1":30.2991,"la2":30.254,"lo1":-89.0895,"lo2":-89.0444,"dy":0.0017,"dx":0.0017,"nx":28,"ny":28,"refTime":"2024-07-18T09:00:00:Z","depth":0,"parameterNumber":2,"parameterNumberName":"U-component_of_WINDS"},"data":[0,0,0,0,0,0,0,0,0,0,0,0,0,0,0,0,0,0,0,0,0,0,0,0,0,0,0,0,0,0,0,0,0,0,0,0,0,0,0,0,0,0,0,0,0,0,0,0,0,0,0,0,0,0,0,0,0,0,2.092,2.092,0,2.095,2.095,2.095,2.0879,2.0876,2.0874,2.0872,2.0902,2.0905,2.0908,0,0,0,0,0,0,0,0,0,0,0,0,0,2.08,2.0803,2.092,2.092,2.0921,2.0949,2.095,2.095,2.0879,2.0876,2.0874,2.0871,2.0901,2.0905,2.0908,0,0,0,0,0,0,0,0,0,0,0,0,0,2.0843,2.0804,2.092,2.0889,2.0886,2.0949,2.095,2.095,2.088,2.0876,2.0873,2.087,2.09,2.0904,2.0909,2.1004,0,0,2.0922,2.0924,0,0,0,0,0,0,0,0,2.0841,2.0848,2.0893,2.0891,2.0888,2.0907,2.0919,2.0968,2.0881,2.0882,2.0872,2.0868,2.0907,2.091,2.0923,2.1005,2.1006,2.0922,2.0925,2.0927,2.0928,0,0,0,0,0,0,0,2.0838,2.0846,2.0932,2.0894,2.0891,2.0873,2.0875,2.0928,2.0913,2.0882,2.0877,2.0881,2.0905,2.0919,2.0923,2.1007,2.0922,2.0926,2.0929,2.0931,2.1164,2.1168,0,0,0,0,0,0,2.0839,2.0844,2.0931,2.0932,2.0856,2.0878,2.088,2.0904,2.0912,2.091,2.0884,2.0878,2.0913,2.0918,2.0924,2.1033,2.0927,2.0931,2.0934,2.1161,2.1165,2.1169,0,0,0,0,0,0,2.0837,2.0848,2.0929,2.0887,2.0896,2.0883,2.0911,2.0907,2.0921,2.0914,2.0911,2.0902,2.0911,2.0918,2.0984,2.1033,2.0933,2.0937,2.1156,2.1162,2.1167,2.1253,0,0,0,0,0,0,2.0834,2.0847,2.0884,2.0888,2.0899,2.0989,2.0914,2.091,2.0929,2.0921,2.093,2.0928,2.0909,2.0977,2.0988,2.1037,2.094,2.1152,2.1159,2.1165,2.1245,2.126,2.1273,0,0,0,0,0,2.083,2.0908,2.0886,2.0897,2.0944,2.0992,2.0998,2.0974,2.0933,2.0969,2.0964,2.0928,2.1027,2.0985,2.0996,2.1047,2.1149,2.1157,2.1165,2.1239,2.1257,2.1273,0,0,0,0,0,0,2.091,2.0908,2.0884,2.0965,2.0979,2.098,2.1025,2.0995,2.1021,2.1013,2.0983,2.0985,2.1056,2.1058,2.1012,2.1138,2.108,2.1091,2.1133,2.115,2.1164,2.1161,2.0944,0,0,0,0,0,2.0937,2.0977,2.0973,2.1045,2.1053,2.1038,2.1058,2.1039,2.1052,2.1058,2.1058,2.1072,2.1105,2.1129,2.116,2.1246,2.1245,2.1287,2.1301,2.1312,2.1321,2.1364,2.1381,2.1195,2.1195,2.1195,0,0,2.0993,2.0997,2.1024,2.1061,2.1069,2.111,2.1043,2.109,2.1119,2.1065,2.1125,2.1126,2.114,2.1216,2.1249,2.122,2.1372,2.1323,2.1332,2.1334,2.1374,2.1392,2.1407,2.1201,2.12,2.1199,0,0,2.1116,2.1124,2.1183,2.1193,2.1206,2.1195,2.121,2.1215,2.1213,2.1273,2.1232,2.1267,2.1327,2.1337,2.1351,2.1475,2.1442,2.1487,2.1558,2.16,2.1615,2.1628,2.1669,2.1685,2.1496,2.1496,2.1496,0,2.1184,2.1244,2.1218,2.1266,2.1282,2.1234,2.1293,2.1304,2.1328,2.1339,2.1307,2.1379,2.1385,2.1461,2.1491,2.1505,2.1518,2.1484,2.1615,2.1628,2.1639,2.1678,2.1694,2.1501,2.1501,2.15,2.15,0,2.1325,2.1367,2.1414,2.1436,2.1458,2.1512,2.1492,2.1518,2.1496,2.1489,2.155,2.1555,2.1585,2.1602,2.1583,2.1675,2.1656,2.162,2.1561,2.1662,2.1699,2.1714,2.1509,2.1507,2.1505,2.1504,0,0,2.1498,2.1504,2.1521,2.153,2.154,2.1572,2.1623,2.1652,2.1672,2.1691,2.1731,2.1782,2.1748,2.1763,2.1744,2.1781,2.1876,2.174,2.174,2.1762,2.1974,2.1999,2.2017,2.1854,2.1857,2.1859,2.1972,0,2.1617,2.1703,2.168,2.1766,2.1803,2.1758,2.1801,2.1812,2.1806,2.1836,2.183,2.1865,2.1819,2.1827,2.1863,2.1857,2.1917,2.1849,2.189,2.1891,2.1885,2.2036,2.2063,2.2169,2.1986,2.1989,2.199,0,2.1767,2.1788,2.1878,2.1879,2.1894,2.1934,2.1957,2.1987,2.1998,2.1991,2.2007,2.198,2.2028,2.1971,2.2036,2.199,2.2006,2.2005,2.2009,2.2009,2.1945,2.2038,2.2203,2.2218,2.2013,2.2011,2.201,0,2.188,2.1932,2.1991,2.2,2.2005,2.2033,2.2037,2.2044,2.2062,2.2082,2.2093,2.212,2.2134,2.2154,2.2134,2.2095,2.2202,2.2144,2.2195,2.2196,2.2218,2.2216,2.2384,2.2233,2.2233,2.2233,2.2232,0,2.2013,2.2069,2.2041,2.2078,2.2138,2.2111,2.2171,2.217,2.2176,2.221,2.2174,2.2207,2.218,2.221,2.2195,2.2249,2.2257,2.2251,2.2246,2.2253,2.2253,2.2261,2.2252,2.2237,2.2236,2.2235,2.2234,0,2.2149,2.2134,2.2194,2.2193,2.2194,2.2238,2.2237,2.227,2.2261,2.2305,2.2313,2.2299,2.2333,2.2315,2.2351,2.234,2.241,2.2397,2.2406,2.2401,2.2453,2.2447,2.2629,2.265,2.2489,2.249,2.2492,0,2.2234,2.2275,2.2278,2.2297,2.2303,2.2336,2.2353,2.2329,2.2348,2.2362,2.2393,2.2423,2.2445,2.2501,2.2493,2.2519,2.2504,2.2566,2.2508,2.2513,2.2501,2.2498,2.2501,2.2577,2.2579,2.2581,2.2582,0,2.2384,2.2374,2.24,2.2424,2.2445,2.2463,2.2477,2.2496,2.2471,2.2495,2.2528,2.2545,2.258,2.2609,2.2631,2.2634,2.2603,2.2601,2.2613,2.2619,2.2622,2.2618,2.2435,2.2596,2.2595,2.2594,2.2593,2.2592,2.2495,2.2528,2.2534,2.2564,2.2572,2.2586,2.2616,2.261,2.2637,2.2663,2.2647,2.2685,2.2693,2.2719,2.2726,2.2755,2.273,2.2749,2.2754,2.2758,2.2763,2.262,2.2759,2.2759,2.2758,2.2758,2.2758,0,2.2641,2.2642,2.267,2.269,2.2713,2.2683,2.2696,2.2718,2.2752,2.2761,2.2784,2.2821,2.2849,2.2843,2.2868,2.2893,2.2879,2.29,2.2896,2.2897,2.2786,2.2771,2.291,2.291,2.291,2.291,2.291,2.291,2.2719,2.2772,2.2763,2.2819,2.282,2.2857,2.2867,2.2879,2.2886,2.2928,2.2951,2.2947,2.2951,2.2975,2.2999,2.2997,2.3006,2.3032,2.3024,2.292,2.2905,2.289,2.2876,2.3035,2.3035,2.3132,2.3133,2.3133]},{"header":{"parameterUnit":"m.s-1","parameterCategory":1,"la1":30.2991,"la2":30.254,"lo1":-89.0895,"lo2":-89.0444,"dy":0.0017,"dx":0.0017,"nx":28,"ny":28,"refTime":"2024-07-18T09:00:00:Z","depth":0,"parameterNumber":3,"parameterNumberName":"V-component_of_WINDS"},"data":[0,0,0,0,0,0,0,0,0,0,0,0,0,0,0,0,0,0,0,0,0,0,0,0,0,0,0,0,0,0,0,0,0,0,0,0,0,0,0,0,0,0,0,0,0,0,0,0,0,0,0,0,0,0,0,0,0,0,0.795,0.7951,0,0.8049,0.8051,0.8052,0.8055,0.8053,0.8052,0.8051,0.8152,0.8156,0.816,0,0,0,0,0,0,0,0,0,0,0,0,0,0.7759,0.7763,0.795,0.7951,0.7952,0.8049,0.8051,0.8052,0.8055,0.8053,0.8052,0.805,0.8151,0.8155,0.816,0,0,0,0,0,0,0,0,0,0,0,0,0,0.7849,0.7764,0.7949,0.7965,0.7968,0.8049,0.8051,0.8052,0.8055,0.8053,0.8051,0.805,0.8149,0.8155,0.8161,0.8233,0,0,0.8178,0.8181,0,0,0,0,0,0,0,0,0.7844,0.7856,0.7962,0.7964,0.7967,0.8038,0.8021,0.8113,0.8056,0.8022,0.8051,0.8049,0.8116,0.8124,0.8147,0.8237,0.8242,0.8179,0.8182,0.8185,0.8186,0,0,0,0,0,0,0,0.7838,0.7851,0.7989,0.7963,0.7967,0.7967,0.7977,0.8038,0.8078,0.8025,0.8025,0.8037,0.8117,0.8141,0.8149,0.8243,0.8179,0.8184,0.8187,0.8189,0.8396,0.8397,0,0,0,0,0,0,0.7828,0.7846,0.7986,0.7992,0.79,0.7971,0.7983,0.8017,0.8077,0.8084,0.8038,0.8037,0.8132,0.8142,0.8153,0.824,0.8185,0.819,0.8193,0.8394,0.8396,0.8398,0,0,0,0,0,0,0.7824,0.7841,0.7982,0.7919,0.7937,0.7977,0.8014,0.802,0.8044,0.8087,0.8094,0.8056,0.8131,0.8144,0.8212,0.8243,0.8193,0.8198,0.8391,0.8394,0.8397,0.8415,0,0,0,0,0,0,0.7819,0.7839,0.7868,0.792,0.7941,0.8041,0.8016,0.8023,0.8054,0.8053,0.8106,0.8113,0.8131,0.8204,0.8218,0.825,0.8202,0.8389,0.8393,0.8396,0.8412,0.8418,0.8424,0,0,0,0,0,0.7812,0.7869,0.7869,0.7886,0.7977,0.8043,0.8054,0.8074,0.8057,0.8085,0.8112,0.8111,0.8237,0.8211,0.8227,0.8261,0.8387,0.8391,0.8396,0.8409,0.8417,0.8424,0,0,0,0,0,0,0.782,0.7876,0.7877,0.7953,0.7993,0.8043,0.808,0.8082,0.8127,0.8124,0.8146,0.8158,0.8225,0.825,0.8219,0.8333,0.831,0.8318,0.8314,0.8322,0.8328,0.8321,0.8207,0,0,0,0,0,0.783,0.7879,0.7926,0.7988,0.8008,0.804,0.807,0.8081,0.8123,0.814,0.8172,0.8213,0.8261,0.8293,0.834,0.8415,0.8426,0.8446,0.8452,0.8457,0.8464,0.8503,0.8513,0.8413,0.8413,0.8413,0,0,0.7853,0.789,0.7919,0.7991,0.8023,0.8072,0.8055,0.8108,0.8145,0.8148,0.8214,0.8239,0.8285,0.8356,0.8389,0.8379,0.8493,0.8463,0.8466,0.8471,0.8509,0.8518,0.8527,0.8416,0.8416,0.8415,0,0,0.7919,0.7952,0.8007,0.8039,0.8088,0.8109,0.8122,0.8171,0.8188,0.8254,0.8257,0.83,0.8384,0.8417,0.8444,0.852,0.852,0.8534,0.8566,0.8604,0.8612,0.8619,0.8645,0.8654,0.8541,0.8541,0.8541,0,0.7941,0.8016,0.8035,0.8088,0.8119,0.8123,0.8178,0.8209,0.827,0.8291,0.8278,0.8382,0.8414,0.8492,0.851,0.8532,0.8547,0.8529,0.8609,0.8617,0.8623,0.8648,0.8658,0.8542,0.8542,0.8542,0.8542,0,0.8039,0.8091,0.8129,0.8189,0.8223,0.8277,0.8303,0.8336,0.8344,0.8365,0.8431,0.8469,0.8524,0.8543,0.8551,0.8621,0.8613,0.8605,0.8582,0.8634,0.8658,0.8668,0.8544,0.8544,0.8543,0.8543,0,0,0.8115,0.8182,0.8196,0.8222,0.8275,0.8315,0.8368,0.8421,0.8448,0.849,0.8534,0.8604,0.8596,0.8627,0.8638,0.8672,0.8728,0.8659,0.866,0.867,0.8806,0.8812,0.8823,0.8728,0.873,0.8731,0.8802,0,0.8186,0.8282,0.8299,0.8382,0.8429,0.8433,0.8479,0.8516,0.8537,0.8579,0.8602,0.865,0.8637,0.8655,0.8688,0.8714,0.8755,0.8709,0.8768,0.877,0.8757,0.8836,0.8843,0.8908,0.8811,0.8813,0.8814,0,0.8283,0.8327,0.8414,0.8459,0.8479,0.852,0.8569,0.861,0.8651,0.8664,0.8697,0.8705,0.8758,0.8733,0.8806,0.8774,0.8799,0.8815,0.8818,0.8825,0.8796,0.8844,0.8929,0.8939,0.8829,0.8828,0.8827,0,0.8329,0.8409,0.8471,0.8493,0.8548,0.8576,0.86,0.8639,0.8669,0.8711,0.8731,0.8779,0.8805,0.8841,0.886,0.884,0.8932,0.8909,0.8943,0.8943,0.8963,0.8962,0.9053,0.8979,0.8979,0.8979,0.8979,0,0.8407,0.846,0.8492,0.853,0.8589,0.8608,0.8665,0.8688,0.8723,0.8765,0.8771,0.881,0.8833,0.8875,0.889,0.8948,0.896,0.8971,0.8975,0.8971,0.8969,0.8988,0.8983,0.8982,0.8981,0.8981,0.898,0,0.8468,0.8492,0.856,0.8605,0.8617,0.8658,0.8697,0.8733,0.8753,0.8806,0.8819,0.8851,0.89,0.8923,0.8984,0.8994,0.906,0.906,0.9046,0.9047,0.9081,0.9077,0.9187,0.9202,0.9119,0.9119,0.912,0,0.8516,0.8557,0.8606,0.8634,0.8659,0.8705,0.8735,0.8754,0.8785,0.8834,0.8864,0.8914,0.8955,0.9033,0.9061,0.9107,0.9109,0.9144,0.9116,0.911,0.9108,0.9106,0.9109,0.9149,0.915,0.9151,0.9151,0,0.8599,0.8608,0.8652,0.8699,0.8735,0.8773,0.8811,0.8833,0.8858,0.8892,0.8943,0.8975,0.9036,0.9085,0.9133,0.9156,0.9158,0.916,0.917,0.9167,0.9157,0.9162,0.906,0.9157,0.9157,0.9156,0.9156,0.9156,0.8655,0.8691,0.873,0.8778,0.8808,0.8842,0.8878,0.8902,0.8945,0.8997,0.9005,0.9059,0.9097,0.9161,0.9186,0.9227,0.9218,0.9234,0.9238,0.9241,0.9243,0.915,0.9236,0.9236,0.9235,0.9235,0.9235,0,0.8738,0.8763,0.8807,0.8858,0.8895,0.8893,0.8934,0.8965,0.9012,0.9047,0.9087,0.9144,0.919,0.9221,0.9268,0.9295,0.9296,0.9306,0.9305,0.931,0.9248,0.9234,0.9304,0.9304,0.9304,0.9304,0.9304,0.9304,0.8785,0.8845,0.8858,0.8932,0.8957,0.901,0.9033,0.9064,0.9092,0.9155,0.9194,0.9214,0.9247,0.9296,0.9338,0.9345,0.9362,0.9372,0.9379,0.9321,0.9314,0.9307,0.9294,0.9376,0.9376,0.9437,0.9438,0.9438]}]]